Regional Weather Roundup
Issued by NWS

Home | Current Version | Previous Version | Graphics & Text | Print | Product List | Glossary On
Versions: 1 2 3 4 5 6 7 8 9 10 11 12 13 14 15 16 17 18 19 20 21 22 23 24 25 26 27 28 29 30 31 32 33 34 35 36 37 38 39 40 41 42 43 44 45 46 47 48 49 50
000
ASUS45 KABQ 301001
RWRNM
WEATHER ROUNDUP FOR NEW MEXICO
NATIONAL WEATHER SERVICE ALBUQUERQUE NM
400 AM MDT MON MAR 30 2015

NOTE: "FAIR" MEANS FEW OR NO CLOUDS BELOW 12,000 FEET AGL WITH NO
       SIGNIFICANT WEATHER OR OBSTRUCTIONS TO VISION.

      THIS PRODUCT IS RELEASED AS TWO VERSIONS.  ONE VERSION NEAR
      THE TOP OF THE HOUR CONTAINING PRELIMINARY DATA FROM ALBUQUERQUE
      AND OTHER STATIONS.  A FINAL VERSION WITH ADDITIONAL DATA IS
      ISSUED ABOUT 10 MINUTES AFTER THE HOUR.

NMZ501-503-504-510>518-301100-
NORTHWEST PLATEAU/NORTHCENTRAL MOUNTAINS

CITY           SKY/WX    TMP DP  RH WIND       PRES   REMARKS
FARMINGTON     MOCLDY    48  16  27 N7        30.20S
SANTA FE       CLEAR     48  21  34 SE8       30.28F
TAOS           CLEAR     43  25  49 CALM      30.32F
ANGEL FIRE     FAIR      27  25  92 CALM      30.37S

$$
NMZ402-403-502-505>509-301100-
WESTCENTRAL MOUNTAINS/SOUTHWEST MOUNTAINS

CITY           SKY/WX    TMP DP  RH WIND       PRES   REMARKS
GALLUP         MOCLDY    42  17  36 NE5       30.26F

$$
NMZ407-409-411-412-301100-
SOUTHERN DESERTS

CITY           SKY/WX    TMP DP  RH WIND       PRES   REMARKS
DEMING         CLOUDY    57  28  33 CALM      30.14F
ALAMOGORDO     MOCLDY    64  27  24 S7        30.17S
T OR C         MOCLDY    59  21  23 NW5       30.16F

$$
NMZ519>523-301100-
CENTRAL VALLEYS/CENTRAL HIGHLANDS

CITY           SKY/WX    TMP DP  RH WIND       PRES   REMARKS
ALBUQUERQUE    PTCLDY    57  24  28 E6        30.23R
DOUBLE EAGLE   PTCLDY    47  23  38 N9        30.25F
MORIARTY ARPT  FAIR      32  21  63 N3        30.29F
CLINES CORNERS PTCLDY    44  20  38 E12       30.29F
BELEN          FAIR      49  25  40 NW7       30.21S
SOCORRO        NOT AVBL

$$
NMZ524>526-539-540-301100-
SOUTHCENTRAL MOUNTAINS

CITY           SKY/WX    TMP DP  RH WIND       PRES   REMARKS
RUIDOSO        NOT AVBL

$$
NMZ527>531-301100-
NORTHEAST HIGHLANDS/NORTHEAST PLAINS

CITY           SKY/WX    TMP DP  RH WIND       PRES   REMARKS
LAS VEGAS      CLEAR     39  22  50 SW8       30.32F WCI  33
RATON          PTCLDY    39  25  57 W5        30.26F
CLAYTON        PTCLDY    47  25  42 SW8       30.20F

$$
NMZ532>537-301100-
EASTCENTRAL PLAINS

CITY           SKY/WX    TMP DP  RH WIND       PRES   REMARKS
TUCUMCARI      PTCLDY    46  27  47 SW8       30.22S
CANNON AFB     NOT AVBL
CLOVIS AIRPORT CLOUDY    45  27  49 S7        30.27R

$$
NMZ028-029-538-301100-
SOUTHEAST PLAINS

CITY           SKY/WX    TMP DP  RH WIND       PRES   REMARKS
ROSWELL        CLOUDY    53  34  48 S5        30.22F
ARTESIA        MOCLDY    50  32  50 CALM      30.23S
CARLSBAD       PTCLDY    57  37  47 E3        30.19F
HOBBS          MOCLDY    48  34  57 NW6       30.24S


$$


USA.gov is the U.S. government's official web portal to all federal, state and local government web resources and services.